Tracking 18987 objects as of 25-Feb-2018
HD Live streaming from Space Station
objects crossing your sky now

COSMOS 2198

Track COSMOS 2198 now!
10-day predictions
COSMOS 2198 is classified as:


NORAD ID: 22035
Int'l Code: 1992-042B
Perigee: 1,414.8 km
Apogee: 1,424.0 km
Inclination: 82.6 °
Period: 114.1 minutes
Semi major axis: 7790 km
RCS: 1.1839 m2 (large)
Launch date: July 13, 1992
Source: Commonwealth of Independent States (former USSR) (CIS)
Launch site: PLESETSK MISSILE AND SPACE COMPLEX (PKMTR)
aabbcc
Your satellite tracking list
Your tracking list is empty




NASA's NSSDC Master Catalog

Two Line Element Set (TLE):
1 22035U 92042B   18056.56570245 -.00000004 +00000-0 -79128-4 0  9990
2 22035 082.5980 026.3908 0005939 006.4296 353.6870 12.62595663180575
Source of the keplerian elements: AFSPC